Fremont, NE

4:16 PM CST on February 19, 2017 (GMT -0600)
Fremont Municipal

Weather History for KFET - November, 2014

Change the Weather History Date:

Thursday, November 20, 2014

  Actual Average Record
Temperature  
Mean Temperature 20 °F -  
Max Temperature 30 °F 46 °F 71 °F (2003)
Min Temperature 9 °F 28 °F 5 °F (1950)
Degree Days  
Heating Degree Days 46    
Moisture  
Dew Point 14 °F    
Average Humidity 79    
Maximum Humidity 88    
Minimum Humidity 63    
Precipitation  
Precipitation 0.00 in - - ()
Sea Level Pressure  
Sea Level Pressure 30.20 in    
Wind  
Wind Speed 3 mph (West)    
Max Wind Speed 9 mph    
Max Gust Speed -    
Visibility 10 miles    
Events      
Averages and records for this station are not official NWS values.
T = Trace of Precipitation, MM = Missing Value Source: NWS Daily Summary

Daily Weather History Graph

Daily Weather History Graph

Search for Another Location

Airport or City:

Trip Planner

Search our weather history database for the weather conditions in past years. The results will help you decide how hot, cold, wet, or windy it might be!

Date:

Astronomy

Nov. 20, 2014 Rise Set
Actual Time 7:20 AM CST 5:02 PM CST
Civil Twilight 6:50 AM CST 5:32 PM CST
Nautical Twilight 6:16 AM CST 6:06 PM CST
Astronomical Twilight 5:43 AM CST 6:39 PM CST
Moon 5:15 AM CST (11/20) 4:08 PM CST (11/20)
Length of Visible Light 10h 42m
Length of Day
9h 41m
Waning Crescent, 4% of the Moon is Illuminated
Nov 20
Waning Crescent
Nov 22
New
Nov 29
First Quarter
Dec 6
Full
Dec 14
Last Quarter

Hourly Weather History & Observations

Time (CST) Temp. Windchill Dew Point Humidity Pressure Visibility Wind Dir Wind Speed Gust Speed Precip Events Conditions
12:15 AM 13.5 °F 4.4 °F 9.7 °F 85% 30.17 in 10.0 mi WNW 5.8 mph - N/A   Clear
12:35 AM 14.4 °F 8.6 °F 10.6 °F 85% 30.16 in 10.0 mi WNW 3.5 mph - N/A   Clear
12:55 AM 13.3 °F 7.3 °F 9.5 °F 85% 30.16 in 10.0 mi WSW 3.5 mph - N/A   Clear
1:15 AM 14.9 °F - 11.3 °F 86% 30.17 in 10.0 mi Calm Calm - N/A   Clear
1:35 AM 14.9 °F 9.2 °F 11.3 °F 86% 30.17 in 10.0 mi WSW 3.5 mph - N/A   Clear
1:55 AM 11.8 °F 3.9 °F 8.6 °F 87% 30.17 in 10.0 mi WNW 4.6 mph - N/A   Clear
2:15 AM 9.5 °F 1.2 °F 6.3 °F 87% 30.17 in 10.0 mi WNW 4.6 mph - N/A   Clear
2:35 AM 9.5 °F -0.3 °F 6.3 °F 87% 30.17 in 10.0 mi NW 5.8 mph - N/A   Clear
2:55 AM 10.4 °F - 7.0 °F 86% 30.17 in 10.0 mi Calm Calm - N/A   Clear
3:15 AM 9.3 °F 2.8 °F 6.3 °F 87% 30.17 in 10.0 mi WNW 3.5 mph - N/A   Clear
3:35 AM 11.1 °F 1.7 °F 8.1 °F 87% 30.17 in 10.0 mi West 5.8 mph - N/A   Clear
3:55 AM 12.0 °F -0.4 °F 9.0 °F 88% 30.17 in 10.0 mi West 9.2 mph - N/A   Clear
4:15 AM 13.8 °F 3.7 °F 10.4 °F 86% 30.17 in 10.0 mi West 6.9 mph - N/A   Clear
4:35 AM 11.8 °F - 8.1 °F 85% 30.17 in 10.0 mi Calm Calm - N/A   Clear
4:55 AM 10.2 °F 2.0 °F 6.8 °F 86% 30.17 in 10.0 mi WNW 4.6 mph - N/A   Clear
5:15 AM 9.7 °F 3.2 °F 6.3 °F 86% 30.17 in 10.0 mi West 3.5 mph - N/A   Clear
5:35 AM 10.4 °F 4.0 °F 6.8 °F 85% 30.17 in 10.0 mi West 3.5 mph - N/A   Clear
5:55 AM 10.9 °F - 7.5 °F 86% 30.18 in 10.0 mi Calm Calm - N/A   Clear
6:15 AM 11.5 °F - 7.9 °F 85% 30.18 in 10.0 mi Calm Calm - N/A   Clear
6:35 AM 10.4 °F 4.0 °F 7.2 °F 87% 30.19 in 10.0 mi NW 3.5 mph - N/A   Clear
6:55 AM 9.5 °F 3.0 °F 6.4 °F 87% 30.19 in 10.0 mi West 3.5 mph - N/A   Clear
7:15 AM 10.0 °F 1.8 °F 6.8 °F 87% 30.19 in 10.0 mi WNW 4.6 mph - N/A   Clear
7:35 AM 10.4 °F - 7.3 °F 87% 30.20 in 10.0 mi Calm Calm - N/A   Mostly Cloudy
7:55 AM 11.1 °F - 7.5 °F 85% 30.20 in 10.0 mi Calm Calm - N/A   Overcast
8:15 AM 13.3 °F - 10.0 °F 87% 30.21 in 10.0 mi Calm Calm - N/A   Overcast
8:35 AM 15.1 °F 9.4 °F 12.0 °F 88% 30.21 in 10.0 mi WNW 3.5 mph - N/A   Overcast
8:55 AM 17.1 °F 11.7 °F 13.8 °F 87% 30.21 in 10.0 mi WNW 3.5 mph - N/A   Overcast
9:15 AM 18.9 °F 13.7 °F 14.9 °F 85% 30.22 in 10.0 mi West 3.5 mph - N/A   Overcast
9:35 AM 19.9 °F 14.9 °F 15.8 °F 84% 30.23 in 10.0 mi West 3.5 mph - N/A   Overcast
9:55 AM 21.2 °F 16.4 °F 16.7 °F 83% 30.23 in 10.0 mi WNW 3.5 mph - N/A   Overcast
10:15 AM 22.3 °F - 17.1 °F 80% 30.23 in 10.0 mi Calm Calm - N/A   Overcast
10:35 AM 22.8 °F - 16.7 °F 77% 30.24 in 10.0 mi Calm Calm - N/A   Overcast
10:55 AM 23.7 °F - 17.1 °F 76% 30.24 in 10.0 mi Calm Calm - N/A   Overcast
11:15 AM 24.8 °F - 17.4 °F 74% 30.23 in 10.0 mi Calm Calm - N/A   Overcast
11:35 AM 26.4 °F - 18.1 °F 71% 30.23 in 10.0 mi Calm Calm - N/A   Overcast
11:55 AM 27.0 °F - 17.4 °F 67% 30.23 in 10.0 mi Calm Calm - N/A   Overcast
12:15 PM 27.5 °F - 16.3 °F 63% 30.22 in 10.0 mi Calm Calm - N/A   Overcast
12:35 PM 27.5 °F - 17.2 °F 65% 30.21 in 10.0 mi Calm Calm - N/A   Overcast
12:55 PM 27.5 °F - 17.4 °F 66% 30.21 in 10.0 mi Calm Calm - N/A   Overcast
1:15 PM 28.0 °F - 17.4 °F 64% 30.20 in 10.0 mi Calm Calm - N/A   Overcast
1:35 PM 29.5 °F - 18.7 °F 64% 30.20 in 10.0 mi Calm Calm - N/A   Overcast
1:55 PM 29.8 °F - 18.7 °F 63% 30.20 in 10.0 mi Calm Calm - N/A   Scattered Clouds
2:15 PM 29.8 °F - 18.7 °F 63% 30.20 in 10.0 mi Calm Calm - N/A   Clear
2:35 PM 30.2 °F - 19.2 °F 64% 30.20 in 10.0 mi Calm Calm - N/A   Clear
2:55 PM 29.8 °F - 19.0 °F 64% 30.19 in 10.0 mi Calm Calm - N/A   Clear
3:15 PM 30.0 °F - 19.0 °F 64% 30.19 in 10.0 mi Calm Calm - N/A   Scattered Clouds
3:35 PM 29.8 °F 24.9 °F 19.0 °F 64% 30.19 in 10.0 mi NE 4.6 mph - N/A   Clear
3:55 PM 29.3 °F - 18.7 °F 65% 30.19 in 10.0 mi Calm Calm - N/A   Clear
4:15 PM 29.1 °F - 18.5 °F 65% 30.19 in 10.0 mi Calm Calm - N/A   Clear
4:35 PM 28.4 °F 22.2 °F 18.9 °F 67% 30.19 in 10.0 mi ENE 5.8 mph - N/A   Clear
4:55 PM 27.7 °F - 18.5 °F 68% 30.20 in 10.0 mi Calm Calm - N/A   Clear
5:15 PM 26.6 °F - 18.5 °F 71% 30.20 in 10.0 mi Calm Calm - N/A   Clear
5:35 PM 26.6 °F - 18.5 °F 71% 30.21 in 10.0 mi Calm Calm - N/A   Clear
5:55 PM 25.5 °F - 18.0 °F 73% 30.21 in 10.0 mi Calm Calm - N/A   Clear
6:15 PM 24.8 °F - 17.8 °F 75% 30.21 in 10.0 mi Calm Calm - N/A   Clear
6:35 PM 23.7 °F - 17.8 °F 78% 30.21 in 10.0 mi Calm Calm - N/A   Clear
6:55 PM 24.1 °F - 18.5 °F 79% 30.21 in 10.0 mi Calm Calm - N/A   Clear
7:15 PM 22.1 °F - 16.9 °F 80% 30.21 in 10.0 mi Calm Calm - N/A   Clear
7:35 PM 22.5 °F - 17.6 °F 82% 30.21 in 10.0 mi Calm Calm - N/A   Clear
7:55 PM 21.6 °F - 17.1 °F 83% 30.22 in 10.0 mi Calm Calm - N/A   Clear
8:15 PM 22.8 °F - 17.6 °F 80% 30.22 in 10.0 mi Calm Calm - N/A   Clear
8:35 PM 22.5 °F - 17.4 °F 81% 30.22 in 10.0 mi Calm Calm - N/A   Clear
8:55 PM 21.6 °F - 16.9 °F 82% 30.22 in 10.0 mi Calm Calm - N/A   Clear
9:15 PM 21.2 °F 14.9 °F 16.7 °F 83% 30.22 in 10.0 mi East 4.6 mph - N/A   Clear
9:35 PM 21.4 °F 16.6 °F 16.7 °F 82% 30.23 in 10.0 mi ESE 3.5 mph - N/A   Clear
9:55 PM 20.1 °F 13.6 °F 15.8 °F 83% 30.23 in 10.0 mi ESE 4.6 mph - N/A   Clear
10:15 PM 20.3 °F 11.5 °F 16.2 °F 84% 30.23 in 10.0 mi SE 6.9 mph - N/A   Clear
10:35 PM 20.5 °F 12.8 °F 16.5 °F 85% 30.22 in 10.0 mi ESE 5.8 mph - N/A   Clear
10:55 PM 20.7 °F 15.8 °F 16.3 °F 83% 30.23 in 10.0 mi ESE 3.5 mph - N/A   Clear
11:15 PM 20.1 °F 15.2 °F 16.5 °F 86% 30.22 in 10.0 mi ESE 3.5 mph - N/A   Clear
11:35 PM 19.9 °F 13.4 °F 16.2 °F 85% 30.23 in 10.0 mi SE 4.6 mph - N/A   Clear
11:55 PM 19.4 °F 14.3 °F 15.8 °F 86% 30.23 in 10.0 mi SE 3.5 mph - N/A   Clear